Overview Statistics Trail Chart Weather Telemetry Raw packets
 

This is the latest recevied weather packets stored in our database for station/object OM5ZU-10. If no packets are shown the sender has not sent any weather packets the latest 10 day(s).

<< 22 23 24 25 26 27 28 >>
Time Temp. Humidity Pressure Rain* Wind** Luminosity Snow
1788048390 12.78° C 89% 1016.2 hPa - - - -
1788047490 13.33° C 86% 1016.2 hPa - - - -
1788046590 12.78° C 87% 1016 hPa - - - -
1788045690 13.33° C 85% 1016 hPa - - - -
1788044790 14.44° C 83% 1016 hPa - - - -
1788043890 13.89° C 85% 1016 hPa - - - -
1788042989 14.44° C 85% 1016 hPa - - - -
1788042089 15° C 83% 1015.9 hPa - - - -
1788041189 15° C 83% 1016 hPa - - - -
1788040289 15° C 84% 1015.9 hPa - - - -
1788039389 14.44° C 83% 1016 hPa - - - -
1788038497 181.11° C 100% - - - - -
1788037579 15° C 81% 1015.8 hPa - - - -
1788036679 15° C 83% 1015.7 hPa - - - -
1788035778 15.56° C 81% 1015.8 hPa - - - -
1788034878 15.56° C 80% 1015.8 hPa - - - -
1788033978 16.11° C 80% 1015.8 hPa - - - -
1788033078 16.11° C 80% 1015.8 hPa - - - -
1788032178 16.67° C 77% 1015.7 hPa - - - -
1788031278 17.22° C 74% 1015.7 hPa - - - -
1788030377 17.78° C 72% 1015.5 hPa - - - -
1788029477 17.78° C 71% 1015.5 hPa - - - -
1788028577 18.33° C 71% 1015.3 hPa - - - -
1788027677 19.44° C 69% 1015.2 hPa - - - -
1788026777 20° C 63% 1015.1 hPa - - - -

* Rain since midnight (hover to see other rain measurements)
** Current wind speed in m/s (hover to see current wind gust speed)